N8097H MMUN-MMUN

Flight info

Callsign N8097H
Flight time 0h 12m
Altitude 100
Route
Aircraft 737/M-G/C

Departure

Time 2026-04-30 19:13
Airport Cancún International Airport (MMUN)

Arrival

Time 2026-04-30 19:25
Airport Cancún International Airport (MMUN)
Time Latitude Longitude Altitude Speed Heading
2026-04-30 18:48 21.38755 -88.05757 3445 ft 116 kts 104°
2026-04-30 18:48 21.38599 -88.04892 3501 ft 119 kts 106°
2026-04-30 18:48 21.38495 -88.04042 3712 ft 114 kts 99°
2026-04-30 18:48 21.38469 -88.03198 3855 ft 116 kts 94°
2026-04-30 18:49 21.38454 -88.02337 3875 ft 117 kts 105°
2026-04-30 18:49 21.38224 -88.01518 4070 ft 112 kts 110°
2026-04-30 18:49 21.38013 -88.00730 4229 ft 110 kts 113°
2026-04-30 18:49 21.37709 -87.99968 4260 ft 114 kts 119°
2026-04-30 18:50 21.37327 -87.99232 4313 ft 115 kts 116°
2026-04-30 18:50 21.37035 -87.98362 4200 ft 127 kts 111°
2026-04-30 18:50 21.36785 -87.97501 4222 ft 122 kts 111°
2026-04-30 18:50 21.36599 -87.96589 4272 ft 127 kts 102°
2026-04-30 18:51 21.36472 -87.95608 3992 ft 141 kts 102°
2026-04-30 18:51 21.36328 -87.94591 3889 ft 136 kts 103°
2026-04-30 18:51 21.36209 -87.93631 4030 ft 123 kts 98°
2026-04-30 18:51 21.36361 -87.92753 4138 ft 123 kts 62°
2026-04-30 18:52 21.36872 -87.92048 4154 ft 113 kts 96°
2026-04-30 18:52 21.36744 -87.91189 3978 ft 123 kts 101°
2026-04-30 18:52 21.36580 -87.90275 3958 ft 125 kts 106°
2026-04-30 18:52 21.36353 -87.89377 3951 ft 126 kts 112°
2026-04-30 18:53 21.35987 -87.88536 4003 ft 123 kts 122°
2026-04-30 18:53 21.35646 -87.87713 3958 ft 127 kts 112°
2026-04-30 18:53 21.35392 -87.86802 4016 ft 125 kts 108°
2026-04-30 18:53 21.35166 -87.85918 3992 ft 124 kts 113°
2026-04-30 18:54 21.34764 -87.85088 3856 ft 128 kts 128°
2026-04-30 18:54 21.34290 -87.84303 3983 ft 122 kts 118°
2026-04-30 18:54 21.33986 -87.83446 4019 ft 126 kts 111°
2026-04-30 18:54 21.33895 -87.82554 4247 ft 115 kts 90°
2026-04-30 18:55 21.33981 -87.81693 4350 ft 120 kts 87°
2026-04-30 18:55 21.34121 -87.79827 4167 ft 129 kts 98°
2026-04-30 18:55 21.33962 -87.78872 4148 ft 129 kts 107°
2026-04-30 18:56 21.33496 -87.77068 4175 ft 126 kts 111°
2026-04-30 18:56 21.33232 -87.76183 4237 ft 124 kts 113°
2026-04-30 18:56 21.32912 -87.75356 5579 ft 124 kts 117°
2026-04-30 18:57 21.32284 -87.73438 4503 ft 111 kts 111°
2026-04-30 18:57 21.32066 -87.72666 4257 ft 121 kts 107°
2026-04-30 18:57 21.31895 -87.71738 4173 ft 129 kts 104°
2026-04-30 18:58 21.31488 -87.69983 4046 ft 130 kts 103°
2026-04-30 18:58 21.31315 -87.69019 3958 ft 130 kts 102°
2026-04-30 18:58 21.31149 -87.68140 4043 ft 122 kts 106°
2026-04-30 18:59 21.30768 -87.66329 3937 ft 123 kts 108°
2026-04-30 19:00 21.30171 -87.63633 3947 ft 124 kts 105°
2026-04-30 19:00 21.30032 -87.62761 3978 ft 120 kts 103°
2026-04-30 19:00 21.29694 -87.61009 3974 ft 119 kts 108°
2026-04-30 19:01 21.29311 -87.59281 4145 ft 114 kts 110°
2026-04-30 19:01 21.29080 -87.58452 4057 ft 118 kts 109°
2026-04-30 19:02 21.28747 -87.56744 4118 ft 113 kts 113°
2026-04-30 19:02 21.28453 -87.55004 4163 ft 119 kts 105°
2026-04-30 19:03 21.27963 -87.53403 4126 ft 88 kts 124°
2026-04-30 19:03 21.27729 -87.51910 3531 ft 107 kts 86°
2026-04-30 19:04 21.28047 -87.50474 3943 ft 83 kts 130°
2026-04-30 19:04 21.27443 -87.49301 4216 ft 100 kts 118°
2026-04-30 19:05 21.26928 -87.47776 4053 ft 103 kts 110°
2026-04-30 19:05 21.26527 -87.46112 3872 ft 123 kts 105°
2026-04-30 19:06 21.26015 -87.44432 4131 ft 114 kts 111°
2026-04-30 19:06 21.25814 -87.43569 4129 ft 121 kts 108°
2026-04-30 19:06 21.25453 -87.41835 4184 ft 119 kts 111°
2026-04-30 19:07 21.25059 -87.40094 4229 ft 119 kts 109°
2026-04-30 19:07 21.24883 -87.39213 4265 ft 123 kts 104°
2026-04-30 19:08 21.24590 -87.37319 3906 ft 137 kts 104°
2026-04-30 19:08 21.24080 -87.35359 3484 ft 138 kts 110°
2026-04-30 19:08 21.23874 -87.34357 3284 ft 137 kts 105°
2026-04-30 19:09 21.23365 -87.32408 2990 ft 134 kts 106°
2026-04-30 19:09 21.23217 -87.31417 2763 ft 132 kts 104°
2026-04-30 19:09 21.23075 -87.30432 2605 ft 133 kts 101°
2026-04-30 19:10 21.22786 -87.28595 2738 ft 84 kts 107°
2026-04-30 19:10 21.22644 -87.27271 3035 ft 102 kts 99°
2026-04-30 19:11 21.22571 -87.26510 3207 ft 103 kts 100°
2026-04-30 19:11 21.22120 -87.24967 3253 ft 112 kts 110°
2026-04-30 19:11 21.22084 -87.24123 3280 ft 121 kts 84°
2026-04-30 19:12 21.22255 -87.23222 3160 ft 130 kts 85°
2026-04-30 19:12 21.22407 -87.22269 3012 ft 132 kts 88°
2026-04-30 19:12 21.22533 -87.21308 2982 ft 130 kts 88°
2026-04-30 19:13 21.22671 -87.19439 2935 ft 122 kts 96°
2026-04-30 19:13 21.22549 -87.17589 2777 ft 123 kts 108°
2026-04-30 19:13 21.22384 -87.16697 2746 ft 121 kts 103°
2026-04-30 19:14 21.22274 -87.15811 2691 ft 124 kts 104°
2026-04-30 19:14 21.22072 -87.14930 2695 ft 115 kts 120°
2026-04-30 19:14 21.21662 -87.14204 2737 ft 113 kts 124°
2026-04-30 19:14 21.21288 -87.13550 2977 ft 104 kts 126°
2026-04-30 19:15 21.20894 -87.12853 2987 ft 112 kts 129°
2026-04-30 19:15 21.19956 -87.11537 3110 ft 107 kts 127°
2026-04-30 19:15 21.19552 -87.10854 3163 ft 108 kts 124°
2026-04-30 19:16 21.19181 -87.10105 3097 ft 118 kts 120°
2026-04-30 19:16 21.18800 -87.09366 3147 ft 113 kts 119°
2026-04-30 19:16 21.18000 -87.07962 3245 ft 115 kts 122°
2026-04-30 19:17 21.17643 -87.07217 3246 ft 110 kts 122°
2026-04-30 19:17 21.16823 -87.05795 3322 ft 113 kts 128°
2026-04-30 19:17 21.16353 -87.05176 3450 ft 105 kts 134°
2026-04-30 19:18 21.15509 -87.04305 3294 ft 89 kts 141°
2026-04-30 19:18 21.15037 -87.03653 3006 ft 92 kts 115°
2026-04-30 19:18 21.14782 -87.03051 3011 ft 86 kts 119°
2026-04-30 19:19 21.14555 -87.02491 3063 ft 85 kts 117°
2026-04-30 19:19 21.14254 -87.02007 3274 ft 60 kts 136°
2026-04-30 19:19 21.13542 -87.01156 3048 ft 99 kts 127°
2026-04-30 19:20 21.13189 -87.00531 2848 ft 98 kts 120°
2026-04-30 19:20 21.12846 -86.99900 2680 ft 96 kts 126°
2026-04-30 19:20 21.12105 -86.98804 2354 ft 106 kts 127°
2026-04-30 19:21 21.11646 -86.98104 2231 ft 120 kts 125°
2026-04-30 19:21 21.10752 -86.96631 2230 ft 121 kts 129°
2026-04-30 19:22 21.09746 -86.94955 1612 ft 134 kts 123°
2026-04-30 19:22 21.08242 -86.92534 956 ft 127 kts 122°
2026-04-30 19:23 21.06848 -86.90326 442 ft 112 kts 125°
2026-04-30 19:24 21.06223 -86.89322 302 ft 74 kts 126°
2026-04-30 19:24 21.05933 -86.88847 247 ft 77 kts 124°
2026-04-30 19:24 21.05383 -86.87982 42 ft 60 kts 123°
2026-04-30 19:25 21.05084 -86.87699 25 ft 0 kts 272°